Regional Weather Roundup
Issued by NWS Upton, NY

Current Version | Previous Version | Graphics & Text | Print | Product List | Glossary Off
Versions: 1 2 3 4 5 6 7 8 9 10 11 12 13 14 15 16 17 18 19 20 21 22 23 24 25 26 27 28 29 30 31 32 33 34 35 36 37 38 39 40 41 42 43 44 45 46 47 48 49 50

097
ASUS41 KOKX 090104
RWROKX

REGIONAL WEATHER ROUNDUP
NATIONAL WEATHER SERVICE NEW YORK NY
800 PM EST MON FEB 08 2016

NOTE: "FAIR" INDICATES FEW OR NO CLOUDS BELOW 12,000 FEET WITH NO
SIGNIFICANT WEATHER AND/OR OBSTRUCTIONS TO VISIBILITY.

NYZ071-072-176-178-NJZ106-104-090200-
NEW YORK CITY METRO AREA


CITY           SKY/WX    TMP DP  RH WIND       PRES   REMARKS
CENTRAL PARK   CLOUDY    30  22  72 N6        29.81R WCI  24
LAGUARDIA APRT LGT SNOW  30  23  75 NE9       29.79S WCI  22
KENNEDY INTL   FLURRIES  29  24  82 NE8       29.81R WCI  21
NEWARK/LIBERTY FLURRIES  31  24  75 NE10      29.79S WCI  22
BRNX BOT. GARD   N/A     30  25  80 NE2       29.79F
TETERBORO      FLURRIES  30  21  69 NE6       29.79R WCI  24
$$

NYZ177-179-078>081-090200-
LONG ISLAND NEW YORK

CITY           SKY/WX    TMP DP  RH WIND       PRES   REMARKS
FARMINGDALE    LGT SNOW  28  23  81 NE8       29.79S WCI  20
ISLIP          LGT SNOW  27  22  81 NE9       29.77F WCI  18
SHIRLEY        LGT SNOW  26  23  88 N6        29.80S FOG     WCI  19
RIVERHEAD        N/A     27  21  80 E5        29.77S WCI  21
WESTHAMPTON      N/A    N/A N/A N/A MISG      29.80R
EAST HAMPTON   CLOUDY    25  21  85 N8        29.77R WCI  16
MONTAUK POINT    N/A     25  20  81 N14G22    29.77S WCI  13
$$

NYZ052-065-067-090200-
HUDSON VALLEY

CITY           SKY/WX    TMP DP  RH WIND       PRES   REMARKS
WHITE PLAINS   LGT SNOW  26  22  84 NE3       29.77S FOG
NEWBURGH       LGT SNOW  27  25  93 E7        29.78S WCI  19
MONTGOMERY     LGT SNOW  28  24  85 E3        29.77S FOG
POUGHKEEPSIE   LGT SNOW  28  22  78 NE7       29.79S WCI  21
ALBANY         LGT SNOW  25  20  81 CALM      29.81S
$$

NJZ001-105-106-008-010-013-015-019>022-104-090200-
NEW JERSEY

CITY           SKY/WX    TMP DP  RH WIND       PRES   REMARKS
NEWARK/LIBERTY FLURRIES  31  24  75 NE10      29.79S WCI  22
TETERBORO      FLURRIES  30  21  69 NE6       29.79R WCI  24
CALDWELL       FLURRIES  31  23  72 E7        29.79R WCI  24
MORRISTOWN     CLOUDY    32  25  74 CALM      29.78S
SOMERVILLE     CLOUDY    34  23  64 SE6       29.75S WCI  29
SUSSEX         CLOUDY    30  20  66 NE8       29.77R WCI  22
ANDOVER          N/A     31  16  54 NE7       29.75S WCI  24
TRENTON        CLOUDY    34  23  64 E9        29.76R WCI  27
MILLVILLE      CLOUDY    35  28  75 SE12      29.76S WCI  27
ATLANTIC CITY  CLOUDY    34  29  82 E9        29.77S WCI  27
WRIGHTSTOWN    CLOUDY    33  30  88 E9        29.75R WCI  25
TOMS RIVER     CLOUDY    30  25  80 E5        29.79S WCI  25
BELMAR         CLOUDY    30  21  69 E6        29.79R WCI  24
$$

PAZ047>061-062-071-090200-
EASTERN PENNSYLVANIA

CITY           SKY/WX    TMP DP  RH WIND       PRES   REMARKS
PHILADELPHIA   CLOUDY    37  24  59 E9        29.77R WCI  30
ALLENTOWN      CLOUDY    37  19  48 E7        29.73R WCI  32
SCRANTON       CLOUDY    35  17  47 VRB5G18   29.67S WCI  31
$$

CTZ002-004>006-009-010-012-RIZ004-006-007-MAZ004-011-015-090200-
SOUTHERN NEW ENGLAND
 IN CT

CITY           SKY/WX    TMP DP  RH WIND       PRES   REMARKS
BRADLEY INTL   LGT SNOW  23  19  85 N9        29.78S FOG     WCI  13
HARTFORD       LGT SNOW  24  20  84 N7        29.80R FOG     WCI  16
DANBURY        LGT SNOW  26  19  74 NE5       29.79S WCI  20
WTRBRY/OXFORD  LGT SNOW  23  12  63 NE3       29.77R FOG
BRIDGEPORT     FLURRIES  27  20  75 NE9       29.81R WCI  18
MERIDEN        LGT SNOW  25  19  78 N9        29.81R WCI  15
NEW HAVEN      FLURRIES  25  20  81 N10       29.80R WCI  15
CHESTER        LGT SNOW  25  21  86 N8        29.77R WCI  16
GROTON         CLOUDY    24  19  81 N16       29.76F WCI  11
WILLIMANTIC    LGT SNOW  24  18  77 NE12      29.78S WCI  13

 IN RI

CITY           SKY/WX    TMP DP  RH WIND       PRES   REMARKS
PROVIDENCE     LGT SNOW  21  17  84 N16G23    29.77S FOG     WCI   7
BLOCK ISLAND   CLOUDY    25  19  80 N15G25    29.73R WCI  12
WESTERLY       CLOUDY    23  17  78 N12       29.77S WCI  12

 IN MA

CITY           SKY/WX    TMP DP  RH WIND       PRES   REMARKS
BOSTON         LGT SNOW  20  16  84 N14       29.79S FOG     WCI   7
WORCESTER      LGT SNOW  18  14  84 N15G23    29.73S VSB 1   WCI   4
WESTFIELD      LGT SNOW  22  19  89 N6        29.78S FOG     WCI  14
PROVINCETOWN   LGT SNOW  30  28  92 N23G36    29.71R FOG     WCI  17
NANTUCKET      LGT SNOW  33  31  92 N22       29.65R VSB 3/4 WCI  21
$$

ANZ330-335-338-340-345-350-353-355-090200-
COASTAL MARINE OBSERVATIONS


STATION/POSITION TIME  SKY/WX   TEMP    WIND        PRES    VSBY  WAVE
                                AIR SEA DIR/SP/G                  HT/PER
                 (UTC)          (F)     (DEG/KT/KT) (MB)    (MI)  (FT/S)
NY HARB ENTRANCE 2350            30 44   30/ 12/ 16 1008.0         10/11
4S FIRE IS       NOT AVBL
20S FIRE ISLAND  2350            29 45   30/ 16/ 19 1008.1         11/12
GREAT SOUTH BAY  NOT AVBL
23SW MTP         2350            29 46  360/ 23/ 27 1006.1         12/12
HUDSON CANYON    2350            34 50              1007.0         16/14
KINGS POINT      0000            29 38   90/  6/ 10 1008.4
EXECUTION ROCKS  NOT AVBL
CENTRAL LI SOUND 0030            27      30/ 14/ 19   N/A           2/ 3
EASTERN LI SOUND 0000            26 42   20/ 10/ 16   N/A
ROBBINS REEF     0000            32      40/ 10/ 14 1007.9
$$


>>>>>>>>>>>>>>>>>>>>>>>>>>>> KEY <<<<<<<<<<<<<<<<<<<<<<<<<<<
>                                                          <
>     SKY/WX - SKY CONDITION/PRESENT WEATHER               <
>     TMP    - TEMPERATURE IN FAHRENHEIT                   <
>     DP     - DEWPOINT IN FAHRENHEIT                      <
>     RH     - RELATIVE HUMIDITY IN PERCENT                <
>     WIND   - DIRECTION AND SPEED IN MPH                  <
>     PRES   - MEAN SEA LEVEL PRESSURE IN INCHES OF HG     <
>     WCI    - WIND CHILL INDEX                            <
>     VSB    - VISIBILITY IN MILES                         <
>     HX     - HEAT INDEX                                  <
>     TC     - TEMPERATURE IN CELSIUS                      <
>     VRB    - VARIABLE WIND DIRECTION                     <
>                                                          <
>>>>>>>>>>>>>>>>>>>>>>>>>>>> KEY <<<<<<<<<<<<<<<<<<<<<<<<<<<






USA.gov is the U.S. government's official web portal to all federal, state and local government web resources and services.